Location: Unspecified
(0.0000°N, 0.0000°E)
Time: 20:20:29
(UTC+00:00)

N. Korean satellite - Pass Details

Date: 20 March 2023
Orbit: 390 x 416 km, 97.3° (Epoch: 29 March)

Event Time Altitude Azimuth Distance (km) Brightness Sun altitude
Rises 05:31:38 0° 350° (N) 2,298 9.9 -9.0°
Reaches altitude 10° 05:33:53 10° 335° (NNW) 1,438 8.7 -8.4°
Maximum altitude 05:36:21 22° 281° (W) 914 7.4 -7.8°
Drops below altitude 10° 05:38:48 10° 227° (SW) 1,432 8.5 -7.2°
Sets 05:41:02 0° 211° (SSW) 2,287 9.7 -6.7°
